| time (UTC) | temp F | wind direction | speed MPH | gust MPH | rain 1hr in | rain 24hr in | rain mn in | humidity % | barometer mb |
| 20260905171824 | 63 | 247 | 1.0 | 1.0 | 0.00 | 0.00 | 0.00 | 58 | 1014.7 |
| 20260905170823 | 64 | 347 | 0.0 | 0.0 | 0.00 | 0.00 | 0.00 | 58 | 1014.5 |
| 20260905165824 | 64 | 343 | 0.0 | 0.0 | 0.00 | 0.00 | 0.00 | 57 | 1014.3 |
| 20260905164811 | 64 | 66 | 0.0 | 0.0 | 0.00 | 0.00 | 0.00 | 57 | 1014.1 |
| 20260905163811 | 64 | 322 | 1.0 | 1.0 | 0.00 | 0.00 | 0.00 | 59 | 1014.2 |
| 20260905162759 | 64 | 186 | 0.0 | 0.0 | 0.00 | 0.00 | 0.00 | 56 | 1014.1 |
| 20260905161746 | 64 | 223 | 1.0 | 1.0 | 0.00 | 0.00 | 0.00 | 54 | 1014.1 |
| 20260905160746 | 65 | 192 | 1.0 | 1.0 | 0.00 | 0.00 | 0.00 | 53 | 1014.0 |
| 20260905155734 | 66 | 0 | 2.0 | 2.0 | 0.00 | 0.00 | 0.00 | 52 | 1013.9 |
| 20260905154734 | 66 | 282 | 1.0 | 1.0 | 0.00 | 0.00 | 0.00 | 51 | 1013.9 |
| 20260905153721 | 67 | 60 | 2.0 | 2.0 | 0.00 | 0.00 | 0.00 | 50 | 1013.9 |
| 20260905152721 | 67 | 281 | 1.0 | 1.0 | 0.00 | 0.00 | 0.00 | 50 | 1013.8 |
| 20260905151720 | 68 | 294 | 2.0 | 2.0 | 0.00 | 0.00 | 0.00 | 48 | 1013.7 |
| 20260905150708 | 68 | 269 | 3.0 | 3.0 | 0.00 | 0.00 | 0.00 | 50 | 1013.7 |
| 20260905145655 | 68 | 336 | 0.0 | 0.0 | 0.00 | 0.00 | 0.00 | 49 | 1013.6 |
| 20260905144656 | 69 | 198 | 4.0 | 4.0 | 0.00 | 0.00 | 0.00 | 48 | 1013.5 |
| 20260905143644 | 69 | 6 | 2.0 | 2.0 | 0.00 | 0.00 | 0.00 | 47 | 1013.5 |
| 20260905142643 | 68 | 49 | 3.0 | 3.0 | 0.00 | 0.00 | 0.00 | 50 | 1013.6 |
| 20260905141643 | 69 | 216 | 2.0 | 2.0 | 0.00 | 0.00 | 0.00 | 47 | 1013.7 |
| 20260905140630 | 69 | 268 | 5.0 | 5.0 | 0.00 | 0.00 | 0.00 | 50 | 1013.7 |
| 20260905135618 | 68 | 32 | 1.0 | 1.0 | 0.00 | 0.00 | 0.00 | 51 | 1013.6 |
| 20260905134606 | 67 | 324 | 2.0 | 2.0 | 0.00 | 0.00 | 0.00 | 52 | 1013.7 |
| 20260905133606 | 70 | 282 | 0.0 | 0.0 | 0.00 | 0.00 | 0.00 | 47 | 1013.6 |
| 20260905132606 | 68 | 48 | 1.0 | 1.0 | 0.00 | 0.00 | 0.00 | 52 | 1013.6 |
| 20260905131553 | 69 | 240 | 3.0 | 3.0 | 0.00 | 0.00 | 0.00 | 47 | 1013.7 |
| 20260905130553 | 67 | 348 | 4.0 | 4.0 | 0.00 | 0.00 | 0.00 | 50 | 1013.7 |
| 20260905125553 | 68 | 312 | 3.0 | 3.0 | 0.00 | 0.00 | 0.00 | 48 | 1013.8 |
| 20260905124541 | 69 | 282 | 2.0 | 2.0 | 0.00 | 0.00 | 0.00 | 48 | 1013.9 |
| 20260905123541 | 68 | 24 | 2.0 | 2.0 | 0.00 | 0.00 | 0.00 | 49 | 1013.9 |
| 20260905122531 | 66 | 235 | 1.0 | 1.0 | 0.00 | 0.00 | 0.00 | 53 | 1013.9 |
| 20260905121528 | 66 | 294 | 1.0 | 1.0 | 0.00 | 0.00 | 0.00 | 53 | 1013.9 |
| 20260905120528 | 65 | 114 | 2.0 | 2.0 | 0.00 | 0.00 | 0.00 | 55 | 1014.0 |
| 20260905115516 | 68 | 263 | 2.0 | 2.0 | 0.00 | 0.00 | 0.00 | 51 | 1013.9 |
| 20260905114516 | 65 | 257 | 2.0 | 2.0 | 0.00 | 0.00 | 0.00 | 55 | 1013.9 |
| 20260905113516 | 65 | 300 | 4.0 | 4.0 | 0.00 | 0.00 | 0.00 | 56 | 1013.8 |
| 20260905112515 | 66 | 186 | 1.0 | 1.0 | 0.00 | 0.00 | 0.00 | 58 | 1013.7 |
| 20260905111503 | 68 | 294 | 2.0 | 2.0 | 0.00 | 0.00 | 0.00 | 55 | 1013.6 |
| 20260905110450 | 66 | 6 | 2.0 | 2.0 | 0.00 | 0.00 | 0.00 | 60 | 1013.6 |
| 20260905105438 | 64 | 43 | 2.0 | 2.0 | 0.00 | 0.00 | 0.00 | 63 | 1013.7 |
| 20260905104425 | 65 | 251 | 2.0 | 2.0 | 0.00 | 0.00 | 0.00 | 60 | 1013.7 |
| 20260905103413 | 64 | 325 | 3.0 | 4.0 | 0.00 | 0.00 | 0.00 | 60 | 1013.6 |
| 20260905102413 | 66 | 276 | 2.0 | 2.0 | 0.00 | 0.00 | 0.00 | 61 | 1013.4 |
| 20260905101401 | 67 | 289 | 2.0 | 2.0 | 0.00 | 0.00 | 0.00 | 59 | 1013.3 |
| 20260905100401 | 64 | 284 | 4.0 | 5.0 | 0.00 | 0.00 | 0.00 | 61 | 1013.3 |
| 20260905095348 | 64 | 282 | 2.0 | 2.0 | 0.00 | 0.00 | 0.00 | 63 | 1013.2 |
| 20260905094348 | 67 | 270 | 1.0 | 1.0 | 0.00 | 0.00 | 0.00 | 62 | 1013.2 |
| 20260905093336 | 67 | 118 | 1.0 | 1.0 | 0.00 | 0.00 | 0.00 | 59 | 1013.1 |
| 20260905092336 | 66 | 234 | 3.0 | 3.0 | 0.00 | 0.00 | 0.00 | 62 | 1013.1 |
| 20260905091336 | 65 | 269 | 2.0 | 2.0 | 0.00 | 0.00 | 0.00 | 64 | 1013.1 |
| 20260905090323 | 65 | 284 | 4.0 | 4.0 | 0.00 | 0.00 | 0.00 | 63 | 1013.0 |
| 20260905085323 | 65 | 42 | 1.0 | 1.0 | 0.00 | 0.00 | 0.00 | 64 | 1013.1 |
| 20260905084323 | 65 | 76 | 2.0 | 2.0 | 0.00 | 0.00 | 0.00 | 64 | 1013.1 |
| 20260905083311 | 65 | 342 | 2.0 | 2.0 | 0.00 | 0.00 | 0.00 | 66 | 1012.9 |
| 20260905082259 | 64 | 312 | 2.0 | 2.0 | 0.00 | 0.00 | 0.00 | 68 | 1012.7 |
| 20260905081246 | 63 | 75 | 2.0 | 2.0 | 0.00 | 0.00 | 0.00 | 71 | 1012.7 |
| 20260905080233 | 63 | 324 | 3.0 | 3.0 | 0.00 | 0.00 | 0.00 | 70 | 1012.8 |
| 20260905075221 | 64 | 348 | 1.0 | 1.0 | 0.00 | 0.00 | 0.00 | 72 | 1012.7 |
| 20260905074221 | 63 | 288 | 0.0 | 0.0 | 0.00 | 0.00 | 0.00 | 75 | 1012.6 |
| 20260905073220 | 62 | 284 | 2.0 | 2.0 | 0.00 | 0.00 | 0.00 | 76 | 1012.5 |
| 20260905072208 | 62 | 351 | 3.0 | 3.0 | 0.00 | 0.00 | 0.00 | 78 | 1012.4 |
| 20260905071156 | 61 | 202 | 2.0 | 2.0 | 0.00 | 0.00 | 0.00 | 78 | 1012.3 |
| 20260905070155 | 61 | 292 | 4.0 | 4.0 | 0.00 | 0.00 | 0.00 | 81 | 1012.2 |
| 20260905065155 | 61 | 290 | 3.0 | 4.0 | 0.00 | 0.00 | 0.00 | 81 | 1012.2 |
| 20260905063016 | 59 | 73 | 0.0 | 0.0 | 0.00 | 0.06 | 0.00 | 86 | 1012.0 |
| 20260905062015 | 60 | 288 | 1.0 | 1.0 | 0.00 | 0.06 | 0.00 | 84 | 1011.8 |
| 20260905061003 | 59 | 348 | 0.0 | 0.0 | 0.00 | 0.06 | 0.00 | 88 | 1011.8 |
| 20260905060003 | 59 | 204 | 1.0 | 1.0 | 0.00 | 0.06 | 0.00 | 88 | 1011.5 |
| 20260905055003 | 59 | 354 | 2.0 | 2.0 | 0.00 | 0.06 | 0.00 | 88 | 1011.3 |
| 20260905053950 | 59 | 238 | 2.0 | 2.0 | 0.00 | 0.06 | 0.00 | 89 | 1011.3 |
| 20260905052938 | 59 | 198 | 1.0 | 1.0 | 0.00 | 0.06 | 0.00 | 89 | 1011.2 |
| 20260905051938 | 59 | 340 | 0.0 | 0.0 | 0.00 | 0.06 | 0.00 | 89 | 1011.2 |
| 20260905050938 | 59 | 4 | 3.0 | 3.0 | 0.00 | 0.06 | 0.00 | 89 | 1011.1 |
| 20260905045925 | 59 | 195 | 2.0 | 2.0 | 0.00 | 0.06 | 0.00 | 89 | 1010.8 |
| 20260905044926 | 59 | 318 | 1.0 | 1.0 | 0.00 | 0.06 | 0.00 | 90 | 1010.7 |
| 20260905043913 | 59 | 288 | 1.0 | 1.0 | 0.00 | 0.06 | 0.00 | 90 | 1010.8 |
| 20260905042913 | 59 | 294 | 1.0 | 1.0 | 0.00 | 0.06 | 0.00 | 90 | 1010.5 |
| 20260905041913 | 59 | 274 | 3.0 | 3.0 | 0.00 | 0.06 | 0.00 | 91 | 1010.3 |
| 20260905040901 | 59 | 300 | 3.0 | 3.0 | 0.00 | 0.06 | 0.00 | 92 | 1010.1 |
| 20260905035900 | 59 | 276 | 0.0 | 0.0 | 0.00 | 0.06 | 0.00 | 92 | 1010.0 |
| 20260905034848 | 59 | 210 | 2.0 | 2.0 | 0.00 | 0.06 | 0.00 | 91 | 1010.0 |
| 20260905033835 | 59 | 217 | 4.0 | 4.0 | 0.00 | 0.06 | 0.00 | 91 | 1009.9 |
| 20260905032823 | 59 | 191 | 2.0 | 2.0 | 0.00 | 0.06 | 0.00 | 91 | 1009.7 |
| 20260905031823 | 59 | 24 | 2.0 | 2.0 | 0.00 | 0.06 | 0.00 | 91 | 1009.5 |
| 20260905030811 | 59 | 145 | 2.0 | 2.0 | 0.00 | 0.06 | 0.00 | 91 | 1009.3 |
| 20260905025810 | 59 | 24 | 2.0 | 2.0 | 0.00 | 0.06 | 0.00 | 91 | 1009.4 |
| 20260905024811 | 59 | 244 | 2.0 | 2.0 | 0.00 | 0.06 | 0.00 | 90 | 1009.3 |
| 20260905023758 | 59 | 24 | 1.0 | 1.0 | 0.00 | 0.06 | 0.00 | 92 | 1009.1 |
| 20260905022757 | 59 | 172 | 1.0 | 1.0 | 0.00 | 0.06 | 0.00 | 92 | 1009.1 |
| 20260905021758 | 59 | 12 | 1.0 | 1.0 | 0.00 | 0.06 | 0.00 | 92 | 1009.4 |
| 20260905020745 | 59 | 162 | 1.0 | 1.0 | 0.00 | 0.06 | 0.00 | 92 | 1008.9 |
| 20260905015745 | 59 | 288 | 3.0 | 3.0 | 0.00 | 0.06 | 0.00 | 92 | 1008.8 |
| 20260905014745 | 59 | 24 | 0.0 | 0.0 | 0.00 | 0.06 | 0.00 | 93 | 1008.9 |
| 20260905013733 | 59 | 324 | 2.0 | 2.0 | 0.01 | 0.05 | 0.00 | 92 | 1008.8 |
| 20260905012732 | 59 | 228 | 0.0 | 0.0 | 0.01 | 0.05 | 0.00 | 93 | 1008.9 |
| 20260905011720 | 59 | 270 | 0.0 | 0.0 | 0.01 | 0.05 | 0.00 | 93 | 1008.4 |
| 20260905010720 | 59 | 44 | 1.0 | 1.0 | 0.01 | 0.05 | 0.00 | 93 | 1008.5 |
| 20260905005720 | 59 | 192 | 1.0 | 1.0 | 0.01 | 0.05 | 0.00 | 93 | 1008.8 |
| 20260905004709 | 59 | 248 | 4.0 | 4.0 | 0.01 | 0.05 | 0.00 | 93 | 1009.0 |
| 20260905003707 | 59 | 342 | 4.0 | 4.0 | 0.00 | 0.04 | 0.00 | 93 | 1008.6 |
| 20260905002656 | 59 | 174 | 2.0 | 2.0 | 0.00 | 0.04 | 0.00 | 92 | 1008.8 |
| 20260905001656 | 59 | 96 | 1.0 | 1.0 | 0.01 | 0.04 | 0.00 | 92 | 1008.5 |
| 20260905000642 | 59 | 228 | 3.0 | 3.0 | 0.02 | 0.04 | 0.00 | 92 | 1008.0 |
| 20260904235630 | 59 | 277 | 2.0 | 2.0 | 0.03 | 0.03 | 0.00 | 91 | 1007.7 |
| 20260904234630 | 59 | 198 | 4.0 | 4.0 | 0.03 | 0.03 | 0.00 | 91 | 1007.7 |
| 20260904233630 | 59 | 27 | 0.0 | 0.0 | 0.03 | 0.03 | 0.00 | 91 | 1007.4 |
| 20260904232630 | 60 | 114 | 1.0 | 1.0 | 0.02 | 0.02 | 0.00 | 90 | 1007.6 |
| 20260904231617 | 60 | 294 | 3.0 | 4.0 | 0.02 | 0.02 | 0.00 | 89 | 1007.6 |
| 20260904230605 | 61 | 282 | 1.0 | 1.0 | 0.00 | 0.00 | 0.00 | 87 | 1007.2 |
| 20260904225605 | 62 | 150 | 3.0 | 4.0 | 0.00 | 0.00 | 0.00 | 89 | 1007.0 |